Regional Weather Roundup
Issued by NWS

Home | Current Version | Previous Version | Graphics & Text | Print | Product List | Glossary On
Versions: 1 2 3 4 5 6 7 8 9 10 11 12 13 14 15 16 17 18 19 20 21 22 23 24 25 26 27 28 29 30 31 32 33 34 35 36 37 38 39 40 41 42 43 44 45 46 47 48 49 50
000
ASUS45 KBOI 191710
RWRID
WEATHER ROUNDUP FOR IDAHO
NATIONAL WEATHER SERVICE BOISE ID
1100 AM MDT TUE AUG 19 2014

NOTE: "FAIR" INDICATES FEW OR NO CLOUDS BELOW 12000 FEET
WITH NO SIGNIFICANT WEATHER AND/OR OBSTRUCTIONS TO VISIBILITY

IDZ012-014-191800-
SOUTHWEST IDAHO


CITY           SKY/WX    TMP DP  RH WIND       PRES   REMARKS
BOISE          FAIR      76  47  35 SW3       29.80F
CALDWELL       FAIR      77  48  36 N9        29.80F
MOUNTAIN HOME  FAIR      81  46  29 E8        29.81S
$$

IDZ016-017-191800-
SOUTHCENTRAL IDAHO


CITY           SKY/WX    TMP DP  RH WIND       PRES   REMARKS
BURLEY         FAIR      75  54  47 S3        29.89R
JEROME         FAIR      77  49  37 E9        29.88S
TWIN FALLS     FAIR      80  51  36 S10       29.87F
$$

IDZ019>023-191800-
SOUTHEAST IDAHO


CITY           SKY/WX    TMP DP  RH WIND       PRES   REMARKS
IDAHO FALLS    PTSUNNY   65  51  60 NW5       29.96R
POCATELLO      SUNNY     73  52  47 N7        29.94R
REXBURG        PTSUNNY   66  50  56 E3        29.95F
$$

IDZ006-010-011-018-031-032-191800-
CENTRAL IDAHO MOUNTAINS


CITY           SKY/WX    TMP DP  RH WIND       PRES   REMARKS
MCCALL         FAIR      67  44  43 S6        29.92S
HAILEY         PTSUNNY   73  39  29 N8        29.97S
STANLEY          N/A     61  37  41 CALM      30.05F
SALMON         FAIR      66  45  45 CALM      29.89F
CHALLIS        FAIR      69  39  33 CALM      29.95F
$$

IDZ002-004-006-007-026-191800-
NORTHERN IDAHO


CITY           SKY/WX    TMP DP  RH WIND       PRES   REMARKS
LEWISTON       FAIR      78  52  40 N7        29.76F
LOWELL           N/A     71  53  52 CALM      29.81F
COEUR D`ALENE  FAIR      73  55  53 NE10      29.79F
MULLAN PASS    FAIR      64  45  49 VRB7      29.97F
$$


USA.gov is the U.S. government's official web portal to all federal, state and local government web resources and services.